Regional Weather Roundup
Issued by NWS

Home | Current Version | Previous Version | Graphics & Text | Print | Product List | Glossary On
Versions: 1 2 3 4 5 6 7 8 9 10 11 12 13 14 15 16 17 18 19 20 21 22 23 24 25 26 27 28 29 30 31 32 33 34 35 36 37 38 39 40 41 42 43 44 45 46 47 48 49 50
000
ASUS43 KTOP 251859
RWRKS

WEATHER ROUNDUP FOR KANSAS
NATIONAL WEATHER SERVICE GOODLAND KS
100 PM CST TUE NOV 25 2014

NOTE:  "FAIR" INDICATES FEW OR NO CLOUDS BELOW 12,000 FEET WITH NO
SIGNIFICANT WEATHER AND/OR OBSTRUCTIONS TO VISIBILITY.

KSZ001>006-013>018-027>032-041>047-252000-
NORTHWEST KANSAS

CITY           SKY/WX    TMP DP  RH WIND       PRES   REMARKS
GOODLAND       CLOUDY    45   9  23 SW17G28   29.95F
HAYS           SUNNY     48  21  34 SW22G28   30.05F
HILL CITY      PTSUNNY   48  17  29 SW15G24   30.01F
RUSSELL        SUNNY     49  21  33 SW16      30.04F
$$

KSZ061>065-074>080-084>089-252000-
SOUTHWEST KANSAS

CITY           SKY/WX    TMP DP  RH WIND       PRES   REMARKS
DODGE CITY     SUNNY     49  16  26 SW17      30.07F
ELKHART          N/A     48  16  28 SW18        N/A
GARDEN CITY    MOSUNNY  N/A N/A N/A SW23G30   30.03F
GREAT BEND     SUNNY     48  21  34 SW14G21   30.08F
LIBERAL        SUNNY     52  18  25 SW20G25   30.09F
$$

KSZ066>073-081>083-090>101-252000-
SOUTHEAST KANSAS

CITY           SKY/WX    TMP DP  RH WIND       PRES   REMARKS
CHANUTE        SUNNY     43  18  36 SW7       30.18F
COFFEYVILLE    SUNNY     45  16  31 S7        30.20F
HUTCHINSON     SUNNY     51  24  34 SW15      30.11F
MEDICINE LODGE   N/A     49  26  41 SW12G20   30.12F
NEWTON         SUNNY     46  25  42 SW14G20   30.13F
PARSONS        SUNNY     45  16  31 SW7       30.20F
WICHITA INTL   MOSUNNY   49  22  34 SW16      30.13F
WICHITA JABRA  SUNNY     47  24  40 S16       30.13F
WICHITA MCCONL SUNNY     48  21  34 SW13      30.14F
WINFIELD       SUNNY     49  22  34 SW13      30.18F
$$

KSZ007>012-019>026-033>040-048>060-102>105-252000-
NORTHEAST KANSAS

CITY           SKY/WX    TMP DP  RH WIND       PRES   REMARKS
CONCORDIA      SUNNY     48  25  40 SW15      30.05F
EMPORIA        SUNNY     44  20  38 W9        30.14F
LAWRENCE       SUNNY     40  13  33 S7        30.16F
MANHATTAN      SUNNY     47  24  40 SW10      30.10F
OLATHE IND     SUNNY     39  10  30 S7        30.16F
OLATHE EXE     SUNNY     39   9  29 SW6       30.15F
SALINA         SUNNY     50  24  36 SW15      30.10F
TOPEKA BILLARD SUNNY     43  18  36 VRB5      30.14F
TOPEKA FORBES  SUNNY     44  18  35 S9        30.13F
$$



USA.gov is the U.S. government's official web portal to all federal, state and local government web resources and services.